Weather History for Newton, KS

Change the Weather History Date:

Wednesday, November 21, 2012

  Actual Average Record
Temperature  
Mean Temperature 56 °F -  
Max Temperature 71 °F 49 °F 71 °F (2012)
Min Temperature 41 °F 32 °F 17 °F (2008)
Degree Days  
Heating Degree Days 9    
Growing Degree Days 6 (Base 50)    
Moisture  
Dew Point 41 °F    
Average Humidity 57    
Maximum Humidity 81    
Minimum Humidity 40    
Precipitation  
Precipitation 0.00 in - - ()
Sea Level Pressure  
Sea Level Pressure 30.11 in    
Wind  
Wind Speed 14 mph (South)    
Max Wind Speed 30 mph    
Max Gust Speed 38 mph    
Visibility 10 miles    
Events      
Averages and records for this station are not official NWS values.
T = Trace of Precipitation, MM = Missing Value Source: NWS Daily Summary

Daily Weather History Graph

Daily Weather History Graph

Search for Another Location

Airport:

Trip Planner

Search our weather history database for the weather conditions in past years. The results will help you decide how hot, cold, wet, or windy it might be!

Date:

Astronomy

Nov. 21, 2012 Rise Set
Actual Time 7:16 AM CST 5:13 PM CST
Civil Twilight 6:48 AM CST 5:41 PM CST
Nautical Twilight 6:16 AM CST 6:13 PM CST
Astronomical Twilight 5:44 AM CST 6:45 PM CST
Moon 1:24 PM CST (11/21) 12:43 AM CST (11/21)
Length of Visible Light 10h 53m
Length of Day
9h 56m
First Quarter, 62% of the Moon is Illuminated
Nov 21
First Quarter
Nov 28
Full
Dec 6
Last Quarter
Dec 13
New
Dec 19
First Quarter

Hourly Weather History & Observations

Time (CST) Temp. Windchill Dew Point Humidity Pressure Visibility Wind Dir Wind Speed Gust Speed Precip Events Conditions
12:15 AM 46.4 °F 42.4 °F 35.6 °F 66% 30.21 in 10.0 mi South 8.1 mph - N/A   Clear
12:35 AM 48.2 °F - 35.6 °F 62% 30.21 in 10.0 mi South 9.2 mph - N/A   Clear
12:55 AM 48.2 °F - 35.6 °F 62% 30.21 in 10.0 mi South 8.1 mph - N/A   Clear
1:15 AM 44.6 °F 39.7 °F 33.8 °F 66% 30.21 in 10.0 mi SSE 9.2 mph - N/A   Clear
1:35 AM 42.8 °F 38.6 °F 35.6 °F 76% 30.21 in 10.0 mi SSE 6.9 mph - N/A   Clear
1:55 AM 42.8 °F 38.0 °F 35.6 °F 76% 30.20 in 10.0 mi SSE 8.1 mph - N/A   Clear
2:15 AM 42.8 °F 38.0 °F 33.8 °F 70% 30.20 in 10.0 mi SSE 8.1 mph - N/A   Clear
2:35 AM 44.6 °F 39.7 °F 35.6 °F 71% 30.20 in 10.0 mi SSE 9.2 mph - N/A   Clear
2:55 AM 44.6 °F 39.7 °F 35.6 °F 71% 30.20 in 10.0 mi South 9.2 mph - N/A   Clear
3:15 AM 46.4 °F 41.5 °F 35.6 °F 66% 30.20 in 10.0 mi South 10.4 mph - N/A   Clear
3:35 AM 46.4 °F 42.4 °F 35.6 °F 66% 30.20 in 10.0 mi SSE 8.1 mph - N/A   Clear
3:55 AM 41.0 °F 35.2 °F 33.8 °F 76% 30.19 in 10.0 mi SSE 9.2 mph - N/A   Clear
4:15 AM 42.8 °F 38.0 °F 35.6 °F 76% 30.20 in 10.0 mi South 8.1 mph - N/A   Clear
4:35 AM 42.8 °F 38.0 °F 35.6 °F 76% 30.20 in 10.0 mi South 8.1 mph - N/A   Clear
4:55 AM 42.8 °F 37.5 °F 35.6 °F 76% 30.20 in 10.0 mi SSE 9.2 mph - N/A   Clear
5:15 AM 44.6 °F 39.7 °F 35.6 °F 71% 30.20 in 10.0 mi SSE 9.2 mph - N/A   Clear
5:35 AM 42.8 °F 38.0 °F 35.6 °F 76% 30.20 in 10.0 mi South 8.1 mph - N/A   Clear
5:55 AM 41.0 °F 34.7 °F 35.6 °F 81% 30.20 in 10.0 mi South 10.4 mph - N/A   Clear
6:15 AM 42.8 °F 37.0 °F 35.6 °F 76% 30.20 in 10.0 mi South 10.4 mph - N/A   Clear
6:35 AM 42.8 °F 37.0 °F 35.6 °F 76% 30.20 in 10.0 mi South 10.4 mph - N/A   Clear
6:55 AM 42.8 °F 37.0 °F 35.6 °F 76% 30.20 in 10.0 mi South 10.4 mph - N/A   Clear
7:15 AM 44.6 °F 38.8 °F 37.4 °F 76% 30.20 in 10.0 mi South 11.5 mph - N/A   Clear
7:35 AM 44.6 °F 39.2 °F 37.4 °F 76% 30.21 in 10.0 mi South 10.4 mph - N/A   Clear
7:55 AM 44.6 °F 39.2 °F 37.4 °F 76% 30.21 in 10.0 mi South 10.4 mph - N/A   Clear
8:15 AM 48.2 °F - 39.2 °F 71% 30.21 in 10.0 mi South 12.7 mph - N/A   Clear
8:35 AM 50.0 °F - 39.2 °F 66% 30.21 in 10.0 mi South 11.5 mph - N/A   Clear
8:55 AM 51.8 °F - 39.2 °F 62% 30.21 in 10.0 mi South 11.5 mph - N/A   Clear
9:15 AM 53.6 °F - 41.0 °F 62% 30.21 in 10.0 mi South 12.7 mph - N/A   Clear
9:35 AM 55.4 °F - 41.0 °F 58% 30.20 in 10.0 mi South 16.1 mph 20.7 mph N/A   Clear
9:55 AM 57.2 °F - 42.8 °F 59% 30.20 in 10.0 mi South 16.1 mph - N/A   Clear
10:15 AM 60.8 °F - 42.8 °F 52% 30.21 in 10.0 mi SSW 18.4 mph - N/A   Clear
10:35 AM 60.8 °F - 42.8 °F 52% 30.20 in 10.0 mi South 21.9 mph 25.3 mph N/A   Clear
10:55 AM 62.6 °F - 44.6 °F 52% 30.19 in 10.0 mi South 21.9 mph 26.5 mph N/A   Clear
11:15 AM 64.4 °F - 44.6 °F 49% 30.18 in 10.0 mi South 24.2 mph 27.6 mph N/A   Clear
11:35 AM 64.4 °F - 46.4 °F 52% 30.16 in 10.0 mi South 23.0 mph - N/A   Clear
11:55 AM 66.2 °F - 46.4 °F 49% 30.15 in 10.0 mi South 25.3 mph 29.9 mph N/A   Clear
12:15 PM 68.0 °F - 46.4 °F 46% 30.14 in 10.0 mi SSW 21.9 mph 27.6 mph N/A   Clear
12:35 PM 69.8 °F - 46.4 °F 43% 30.12 in 10.0 mi SSW 26.5 mph 33.4 mph N/A   Clear
12:55 PM 69.8 °F - 46.4 °F 43% 30.11 in 10.0 mi South 25.3 mph 31.1 mph N/A   Clear
1:15 PM 69.8 °F - 46.4 °F 43% 30.10 in 10.0 mi South 25.3 mph - N/A   Clear
1:35 PM 71.6 °F - 48.2 °F 43% 30.08 in 10.0 mi SSW 27.6 mph 33.4 mph N/A   Clear
1:55 PM 71.6 °F - 48.2 °F 43% 30.07 in 10.0 mi SSW 27.6 mph 35.7 mph N/A   Clear
2:15 PM 71.6 °F - 46.4 °F 41% 30.06 in 10.0 mi SSW 29.9 mph 36.8 mph N/A   Clear
2:35 PM 71.6 °F - 46.4 °F 41% 30.05 in 10.0 mi South 23.0 mph 32.2 mph N/A   Clear
2:55 PM 71.6 °F - 46.4 °F 41% 30.04 in 10.0 mi SSW 25.3 mph 35.7 mph N/A   Clear
3:15 PM 71.6 °F - 46.4 °F 41% 30.03 in 10.0 mi SSW 25.3 mph 38.0 mph N/A   Clear
3:35 PM 71.6 °F - 46.4 °F 41% 30.03 in 10.0 mi SSW 27.6 mph 31.1 mph N/A   Clear
3:55 PM 69.8 °F - 44.6 °F 40% 30.02 in 10.0 mi SSW 28.8 mph 34.5 mph N/A   Clear
4:15 PM 69.8 °F - 46.4 °F 43% 30.02 in 10.0 mi SSW 21.9 mph 32.2 mph N/A   Clear
4:35 PM 69.8 °F - 44.6 °F 40% 30.02 in 10.0 mi South 20.7 mph 34.5 mph N/A   Clear
4:55 PM 66.2 °F - 44.6 °F 46% 30.01 in 10.0 mi South 18.4 mph 29.9 mph N/A   Clear
5:15 PM 66.2 °F - 44.6 °F 46% 30.01 in 10.0 mi South 17.3 mph - N/A   Clear
5:35 PM 64.4 °F - 44.6 °F 49% 30.01 in 10.0 mi South 18.4 mph - N/A   Clear
5:55 PM 64.4 °F - 44.6 °F 49% 30.01 in 10.0 mi South 15.0 mph - N/A   Clear
6:15 PM 62.6 °F - 44.6 °F 52% 30.01 in 10.0 mi South 15.0 mph - N/A   Clear
6:35 PM 62.6 °F - 44.6 °F 52% 30.02 in 10.0 mi South 16.1 mph - N/A   Clear
6:55 PM 62.6 °F - 44.6 °F 52% 30.01 in 10.0 mi South 17.3 mph - N/A   Clear
7:15 PM 62.6 °F - 44.6 °F 52% 30.00 in 10.0 mi South 13.8 mph - N/A   Clear
7:35 PM 60.8 °F - 44.6 °F 55% 30.00 in 10.0 mi South 16.1 mph - N/A   Clear
7:55 PM 60.8 °F - 44.6 °F 55% 30.00 in 10.0 mi South 16.1 mph - N/A   Clear
8:15 PM 62.6 °F - 42.8 °F 48% 29.99 in 10.0 mi South 17.3 mph 21.9 mph N/A   Clear
8:35 PM 62.6 °F - 42.8 °F 48% 29.98 in 10.0 mi South 19.6 mph 25.3 mph N/A   Clear
8:55 PM 62.6 °F - 42.8 °F 48% 29.98 in 10.0 mi South 20.7 mph 26.5 mph N/A   Clear
9:15 PM 62.6 °F - 42.8 °F 48% 29.98 in 10.0 mi South 20.7 mph - N/A   Clear
9:35 PM 62.6 °F - 42.8 °F 48% 29.98 in 10.0 mi South 23.0 mph 28.8 mph N/A   Clear
9:55 PM 62.6 °F - 42.8 °F 48% 29.97 in 10.0 mi South 24.2 mph 28.8 mph N/A   Clear
10:15 PM 62.6 °F - 42.8 °F 48% 29.97 in 10.0 mi South 23.0 mph 29.9 mph N/A   Clear
10:35 PM 60.8 °F - 42.8 °F 52% 29.96 in 10.0 mi South 20.7 mph 25.3 mph N/A   Clear
10:55 PM 60.8 °F - 42.8 °F 52% 29.95 in 10.0 mi South 19.6 mph - N/A   Clear
11:15 PM 60.8 °F - 42.8 °F 52% 29.95 in 10.0 mi South 19.6 mph 26.5 mph N/A   Clear
11:35 PM 60.8 °F - 42.8 °F 52% 29.95 in 10.0 mi South 19.6 mph 25.3 mph N/A   Clear
11:55 PM 60.8 °F - 44.6 °F 55% 29.95 in 10.0 mi South 20.7 mph 26.5 mph N/A   Clear